TimeEST,TemperatureF,Dew PointF,Humidity,Sea Level PressureIn,VisibilityMPH,Wind Direction,Wind SpeedMPH,Gust SpeedMPH,PrecipitationIn,Events,Conditions,WindDirDegrees,DateUTC
12:53 AM,30.9,16.0,54,30.18,10.0,West,11.5,-,N/A,,Clear,270,2013-02-19 05:53:00
1:53 AM,32.0,19.0,59,30.18,10.0,WNW,6.9,-,N/A,,Clear,290,2013-02-19 06:53:00
2:53 AM,34.0,21.0,59,30.17,10.0,West,15.0,-,N/A,,Clear,270,2013-02-19 07:53:00
3:53 AM,34.0,21.0,59,30.17,10.0,West,11.5,-,N/A,,Clear,270,2013-02-19 08:53:00
4:53 AM,33.1,21.9,64,30.17,10.0,West,11.5,-,N/A,,Clear,280,2013-02-19 09:53:00
5:53 AM,30.9,21.0,67,30.17,10.0,West,4.6,-,N/A,,Clear,270,2013-02-19 10:53:00
6:53 AM,32.0,23.0,69,30.16,10.0,West,6.9,-,N/A,,Clear,260,2013-02-19 11:53:00
7:53 AM,36.0,28.0,73,30.15,10.0,SW,6.9,-,N/A,,Clear,230,2013-02-19 12:53:00
8:53 AM,39.0,30.9,73,30.14,10.0,South,6.9,-,N/A,,Clear,190,2013-02-19 13:53:00
9:53 AM,39.9,33.1,77,30.14,10.0,South,10.4,-,N/A,,Clear,180,2013-02-19 14:53:00
10:53 AM,41.0,34.0,76,30.13,10.0,South,10.4,-,N/A,,Clear,180,2013-02-19 15:53:00
1:53 PM,42.1,34.0,73,30.03,10.0,SSE,15.0,-,N/A,,Clear,150,2013-02-19 18:53:00
2:53 PM,45.0,37.9,76,30.00,10.0,SSE,15.0,-,N/A,,Scattered Clouds,150,2013-02-19 19:53:00
3:53 PM,43.0,37.0,80,29.96,10.0,SSE,12.7,-,N/A,,Mostly Cloudy,150,2013-02-19 20:53:00
4:53 PM,43.0,37.9,82,29.92,10.0,SSE,13.8,-,0.00,,Overcast,160,2013-02-19 21:53:00
4:59 PM,42.8,37.4,81,29.92,9.0,South,15.0,-,0.00,Rain,Light Rain,170,2013-02-19 21:59:00
5:53 PM,43.0,39.0,86,29.89,10.0,SSE,13.8,-,0.00,Rain,Light Rain,150,2013-02-19 22:53:00
7:53 PM,44.1,41.0,89,29.78,9.0,SSE,21.9,31.1,0.01,Rain,Light Rain,150,2013-02-20 00:53:00
8:53 PM,45.0,42.1,90,29.71,5.0,SSE,23.0,31.1,0.03,Rain,Light Rain,160,2013-02-20 01:53:00
9:53 PM,46.0,43.0,89,29.67,4.0,SSE,21.9,33.4,0.07,Rain,Rain,160,2013-02-20 02:53:00
10:03 PM,44.6,42.8,93,29.65,2.5,SSE,21.9,28.8,0.03,Rain,Rain,160,2013-02-20 03:03:00
10:18 PM,46.4,44.6,93,29.63,2.0,SSE,31.1,40.3,0.09,Rain,Rain,160,2013-02-20 03:18:00
10:53 PM,46.0,44.1,93,29.60,2.0,SSE,27.6,41.4,0.17,Rain,Rain,150,2013-02-20 03:53:00
11:14 PM,46.4,44.6,93,29.62,1.5,SSW,16.1,26.5,0.24,Rain,Rain,200,2013-02-20 04:14:00
11:19 PM,46.4,44.6,93,29.62,3.0,SSW,19.6,25.3,0.27,Rain,Heavy Rain,210,2013-02-20 04:19:00
11:34 PM,46.4,44.6,93,29.62,4.0,SW,17.3,-,0.31,Rain,Light Rain,220,2013-02-20 04:34:00
11:42 PM,46.4,44.6,93,29.61,4.0,WSW,17.3,-,0.31,Rain,Light Rain,240,2013-02-20 04:42:00
11:53 PM,45.0,44.1,97,29.61,2.5,WSW,11.5,-,0.32,Rain,Light Rain,240,2013-02-20 04:53:00